[[{"header":{"parameterUnit":"m.s-1","parameterCategory":1,"la1":30.2991,"la2":30.254,"lo1":-89.0895,"lo2":-89.0444,"dy":0.0017,"dx":0.0017,"nx":28,"ny":28,"refTime":"2025-01-30T03:00:00:Z","depth":0,"parameterNumber":2,"parameterNumberName":"U-component_of_WINDS"},"data":[0,0,0,0,0,0,0,0,0,0,0,0,0,0,0,0,0,0,0,0,0,0,0,0,0,0,0,0,0,0,0,0,0,0,0,0,0,0,0,0,0,0,0,0,0,0,0,0,0,0,0,0,0,0,0,0,0,0,-2.9503,-2.9503,0,-2.9529,-2.9529,-2.9529,-2.9464,-2.9462,-2.946,-2.9458,-2.9486,-2.9489,-2.9491,0,0,0,0,0,0,0,0,0,0,0,0,0,-2.9398,-2.94,-2.9503,-2.9503,-2.9503,-2.9529,-2.9529,-2.9529,-2.9464,-2.9462,-2.9459,-2.9457,-2.9485,-2.9488,-2.9491,0,0,0,0,0,0,0,0,0,0,0,0,0,-2.9435,-2.9401,-2.9502,-2.9474,-2.9471,-2.9528,-2.9529,-2.9529,-2.9465,-2.9462,-2.9459,-2.9456,-2.9484,-2.9488,-2.9492,-2.9578,0,0,-2.9504,-2.9506,0,0,0,0,0,0,0,0,-2.9433,-2.9439,-2.9478,-2.9476,-2.9473,-2.949,-2.9502,-2.9546,-2.9466,-2.9467,-2.9458,-2.9454,-2.949,-2.9493,-2.9505,-2.958,-2.9581,-2.9504,-2.9507,-2.9509,-2.951,0,0,0,0,0,0,0,-2.9431,-2.9438,-2.9513,-2.9478,-2.9476,-2.946,-2.9462,-2.951,-2.9496,-2.9467,-2.9462,-2.9466,-2.9488,-2.9501,-2.9505,-2.9581,-2.9504,-2.9508,-2.951,-2.9512,-2.9728,-2.9731,0,0,0,0,0,0,-2.9432,-2.9436,-2.9512,-2.9514,-2.9445,-2.9464,-2.9467,-2.9488,-2.9495,-2.9493,-2.9469,-2.9463,-2.9496,-2.95,-2.9506,-2.9607,-2.9509,-2.9512,-2.9515,-2.9725,-2.9729,-2.9732,0,0,0,0,0,0,-2.943,-2.9439,-2.9511,-2.9474,-2.9482,-2.9469,-2.9494,-2.949,-2.9503,-2.9496,-2.9494,-2.9485,-2.9494,-2.95,-2.9561,-2.9607,-2.9514,-2.9518,-2.9721,-2.9726,-2.973,-2.981,0,0,0,0,0,0,-2.9427,-2.9439,-2.9471,-2.9475,-2.9484,-2.9565,-2.9497,-2.9493,-2.951,-2.9502,-2.9511,-2.9509,-2.9492,-2.9555,-2.9565,-2.9611,-2.9521,-2.9716,-2.9723,-2.9729,-2.9803,-2.9817,-2.9829,0,0,0,0,0,-2.9423,-2.9493,-2.9473,-2.9483,-2.9524,-2.9568,-2.9573,-2.9551,-2.9514,-2.9546,-2.9542,-2.9509,-2.9601,-2.9562,-2.9572,-2.962,-2.9713,-2.9721,-2.9728,-2.9797,-2.9814,-2.9829,0,0,0,0,0,0,-2.9496,-2.9493,-2.9471,-2.9544,-2.9557,-2.9557,-2.9597,-2.957,-2.9594,-2.9587,-2.9559,-2.9562,-2.9627,-2.963,-2.9587,-2.9704,-2.9651,-2.966,-2.97,-2.9716,-2.9728,-2.9726,-2.9524,0,0,0,0,0,-2.952,-2.9556,-2.9551,-2.9616,-2.9624,-2.961,-2.9628,-2.961,-2.9622,-2.9628,-2.9628,-2.9641,-2.9673,-2.9695,-2.9724,-2.9804,-2.9804,-2.9842,-2.9855,-2.9865,-2.9874,-2.9916,-2.9932,-2.9757,-2.9757,-2.9757,0,0,-2.9571,-2.9574,-2.9598,-2.9631,-2.9638,-2.9676,-2.9615,-2.9657,-2.9685,-2.9634,-2.9691,-2.9692,-2.9705,-2.9775,-2.9806,-2.978,-2.9923,-2.9875,-2.9883,-2.9886,-2.9925,-2.9942,-2.9957,-2.9762,-2.9761,-2.976,0,0,-2.9682,-2.9688,-2.9742,-2.9751,-2.9764,-2.9754,-2.9767,-2.9772,-2.977,-2.9826,-2.9789,-2.9822,-2.9878,-2.9888,-2.9901,-3.0017,-2.9987,-3.0027,-3.0094,-3.0136,-3.0149,-3.0161,-3.0202,-3.0217,-3.0036,-3.0036,-3.0036,0,-2.9744,-2.9798,-2.9774,-2.9818,-2.9834,-2.979,-2.9844,-2.9854,-2.9876,-2.9888,-2.9858,-2.9926,-2.9932,-3.0004,-3.0032,-3.0044,-3.0058,-3.0026,-3.0149,-3.0161,-3.0172,-3.021,-3.0226,-3.0041,-3.004,-3.004,-3.004,0,-2.9873,-2.9911,-2.9954,-2.9975,-2.9995,-3.0045,-3.0028,-3.0052,-3.0032,-3.0026,-3.0084,-3.009,-3.0119,-3.0135,-3.0117,-3.0204,-3.0187,-3.0154,-3.0099,-3.0194,-3.0229,-3.0244,-3.0048,-3.0046,-3.0045,-3.0044,0,0,-3.003,-3.0037,-3.0052,-3.0061,-3.0072,-3.0101,-3.0149,-3.0177,-3.0197,-3.0214,-3.0253,-3.0301,-3.027,-3.0285,-3.0268,-3.0304,-3.0394,-3.0266,-3.0266,-3.0289,-3.049,-3.0515,-3.0532,-3.0375,-3.0378,-3.038,-3.0489,0,-3.0139,-3.022,-3.0199,-3.028,-3.0315,-3.0274,-3.0315,-3.0326,-3.0322,-3.0351,-3.0346,-3.038,-3.0337,-3.0346,-3.038,-3.0376,-3.0434,-3.0368,-3.0411,-3.0413,-3.0407,-3.0551,-3.0576,-3.0679,-3.0503,-3.0505,-3.0507,0,-3.0276,-3.0298,-3.0382,-3.0386,-3.04,-3.0437,-3.0461,-3.049,-3.0502,-3.0496,-3.0513,-3.0488,-3.0535,-3.0482,-3.0546,-3.0502,-3.0518,-3.0519,-3.0523,-3.0525,-3.0465,-3.0556,-3.0711,-3.0726,-3.0529,-3.0527,-3.0525,0,-3.0381,-3.0431,-3.0487,-3.0496,-3.0503,-3.053,-3.0535,-3.0543,-3.0561,-3.0583,-3.0594,-3.0621,-3.0635,-3.0657,-3.064,-3.0603,-3.0707,-3.0652,-3.0703,-3.0704,-3.0726,-3.0725,-3.0886,-3.0739,-3.0739,-3.0739,-3.0738,0,-3.0504,-3.0557,-3.0534,-3.0569,-3.0627,-3.0603,-3.0661,-3.0661,-3.0669,-3.0703,-3.067,-3.0702,-3.0679,-3.071,-3.0698,-3.0753,-3.076,-3.0756,-3.0752,-3.0759,-3.0759,-3.0768,-3.076,-3.0743,-3.0742,-3.0741,-3.074,0,-3.063,-3.0617,-3.0676,-3.0677,-3.0679,-3.0722,-3.0723,-3.0755,-3.0748,-3.0792,-3.0801,-3.079,-3.0825,-3.0811,-3.0848,-3.084,-3.091,-3.0897,-3.0905,-3.0902,-3.0953,-3.0948,-3.1124,-3.1146,-3.0987,-3.0988,-3.099,0,-3.0709,-3.0749,-3.0754,-3.0774,-3.0781,-3.0814,-3.0832,-3.081,-3.083,-3.0847,-3.0877,-3.0909,-3.0933,-3.099,-3.0986,-3.1014,-3.1001,-3.1061,-3.1005,-3.101,-3.1,-3.0998,-3.1001,-3.1072,-3.1074,-3.1075,-3.1076,0,-3.085,-3.0842,-3.0868,-3.0893,-3.0916,-3.0934,-3.095,-3.0969,-3.0948,-3.0972,-3.1007,-3.1026,-3.1063,-3.1095,-3.112,-3.1124,-3.1097,-3.1094,-3.1107,-3.1113,-3.1116,-3.1114,-3.0935,-3.109,-3.1088,-3.1087,-3.1087,-3.1086,-3.0954,-3.0987,-3.0996,-3.1027,-3.1036,-3.1052,-3.1082,-3.1079,-3.1107,-3.1135,-3.1121,-3.1162,-3.1173,-3.1203,-3.1212,-3.1243,-3.1219,-3.1239,-3.1243,-3.1248,-3.1254,-3.1112,-3.1248,-3.1247,-3.1247,-3.1246,-3.1246,0,-3.1092,-3.1096,-3.1125,-3.1147,-3.1172,-3.1144,-3.116,-3.1183,-3.1218,-3.1231,-3.1255,-3.1294,-3.1325,-3.1324,-3.1352,-3.1377,-3.1365,-3.1385,-3.1382,-3.1384,-3.1274,-3.1259,-3.1394,-3.1394,-3.1394,-3.1394,-3.1394,-3.1394,-3.1167,-3.122,-3.1213,-3.1272,-3.1275,-3.1313,-3.1325,-3.1339,-3.1349,-3.1394,-3.1419,-3.1418,-3.1425,-3.1453,-3.148,-3.1479,-3.1491,-3.1515,-3.1509,-3.1406,-3.1392,-3.1378,-3.1363,-3.1518,-3.1518,-3.1616,-3.1617,-3.1618]},{"header":{"parameterUnit":"m.s-1","parameterCategory":1,"la1":30.2991,"la2":30.254,"lo1":-89.0895,"lo2":-89.0444,"dy":0.0017,"dx":0.0017,"nx":28,"ny":28,"refTime":"2025-01-30T03:00:00:Z","depth":0,"parameterNumber":3,"parameterNumberName":"V-component_of_WINDS"},"data":[0,0,0,0,0,0,0,0,0,0,0,0,0,0,0,0,0,0,0,0,0,0,0,0,0,0,0,0,0,0,0,0,0,0,0,0,0,0,0,0,0,0,0,0,0,0,0,0,0,0,0,0,0,0,0,0,0,0,1.0485,1.0485,0,1.0558,1.0558,1.0559,1.0568,1.0568,1.0567,1.0566,1.0643,1.0645,1.0648,0,0,0,0,0,0,0,0,0,0,0,0,0,1.0356,1.0359,1.0485,1.0485,1.0486,1.0557,1.0558,1.0559,1.0569,1.0568,1.0567,1.0566,1.0642,1.0645,1.0648,0,0,0,0,0,0,0,0,0,0,0,0,0,1.0419,1.0359,1.0484,1.0499,1.0502,1.0557,1.0558,1.056,1.0569,1.0568,1.0567,1.0566,1.0641,1.0644,1.0648,1.0694,0,0,1.0661,1.0662,0,0,0,0,0,0,0,0,1.0415,1.0424,1.0496,1.0499,1.0501,1.0553,1.0541,1.0605,1.0569,1.0543,1.0566,1.0565,1.0614,1.062,1.0636,1.0698,1.0701,1.0661,1.0664,1.0665,1.0666,0,0,0,0,0,0,0,1.0411,1.0421,1.0513,1.0497,1.05,1.0504,1.0511,1.0553,1.0584,1.0545,1.0546,1.0555,1.0615,1.0632,1.0638,1.0702,1.0661,1.0665,1.0667,1.0669,1.0809,1.081,0,0,0,0,0,0,1.0404,1.0417,1.0511,1.0516,1.0455,1.0507,1.0515,1.0537,1.0583,1.0589,1.0556,1.0555,1.0626,1.0633,1.064,1.07,1.0665,1.0669,1.0671,1.0808,1.0809,1.0811,0,0,0,0,0,0,1.0401,1.0412,1.0508,1.0467,1.0479,1.051,1.0535,1.0539,1.0557,1.0591,1.0596,1.0567,1.0625,1.0635,1.0682,1.0702,1.0671,1.0674,1.0806,1.0808,1.081,1.0817,0,0,0,0,0,0,1.0397,1.0411,1.0428,1.0467,1.0481,1.0547,1.0536,1.0541,1.0563,1.0563,1.0603,1.0609,1.0625,1.0676,1.0686,1.0707,1.0678,1.0805,1.0807,1.081,1.0815,1.0819,1.0822,0,0,0,0,0,1.0393,1.0427,1.0429,1.044,1.0503,1.0548,1.0557,1.0574,1.0565,1.0583,1.0605,1.0608,1.0698,1.068,1.0692,1.0715,1.0803,1.0807,1.0809,1.0813,1.0818,1.0822,0,0,0,0,0,0,1.0389,1.0432,1.0435,1.0482,1.0512,1.055,1.0573,1.0578,1.0611,1.0609,1.063,1.0639,1.0685,1.0704,1.0684,1.0763,1.075,1.0755,1.0749,1.0754,1.0758,1.0753,1.0681,0,0,0,0,0,1.0394,1.0426,1.0462,1.0501,1.0515,1.0542,1.0562,1.0573,1.0604,1.0617,1.0643,1.0674,1.071,1.0732,1.0767,1.0817,1.0828,1.0839,1.0843,1.0846,1.0851,1.0881,1.0888,1.0821,1.0821,1.0821,0,0,1.0404,1.0432,1.0451,1.0501,1.0525,1.056,1.0552,1.0588,1.0615,1.0623,1.0669,1.0689,1.0725,1.0775,1.0798,1.0792,1.0871,1.0849,1.0851,1.0855,1.0885,1.0891,1.0897,1.0823,1.0822,1.0822,0,0,1.0441,1.0464,1.05,1.0525,1.0561,1.0579,1.0587,1.0625,1.0639,1.0686,1.0693,1.0725,1.0785,1.0812,1.0833,1.0882,1.0886,1.0892,1.0912,1.0942,1.0947,1.0952,1.0972,1.0978,1.0897,1.0897,1.0897,0,1.045,1.0501,1.0518,1.0555,1.0578,1.0586,1.0624,1.0647,1.0693,1.0709,1.0702,1.078,1.0804,1.0862,1.0874,1.089,1.0902,1.0889,1.0945,1.095,1.0954,1.0974,1.0981,1.0898,1.0897,1.0897,1.0897,0,1.0511,1.0547,1.0572,1.0617,1.0642,1.0679,1.0703,1.0726,1.0735,1.0754,1.0803,1.0833,1.0875,1.0889,1.0897,1.0948,1.0944,1.094,1.0928,1.0961,1.098,1.0987,1.0899,1.0898,1.0898,1.0898,0,0,1.0548,1.0603,1.0612,1.0633,1.0675,1.0704,1.0742,1.0783,1.0804,1.0836,1.087,1.0921,1.0919,1.0943,1.0955,1.0981,1.1021,1.0975,1.0976,1.0984,1.1082,1.1086,1.1094,1.1023,1.1025,1.1026,1.1079,0,1.0592,1.066,1.0677,1.0735,1.077,1.0779,1.0813,1.0843,1.0862,1.0895,1.0916,1.0953,1.0946,1.0961,1.0987,1.101,1.1041,1.1007,1.1057,1.1059,1.105,1.1103,1.1107,1.1156,1.1086,1.1088,1.1088,0,1.0652,1.0686,1.0748,1.0787,1.0802,1.0832,1.0872,1.0903,1.0938,1.095,1.0978,1.0988,1.103,1.1014,1.1073,1.1049,1.1071,1.1086,1.1088,1.1095,1.1077,1.1114,1.1171,1.118,1.11,1.1099,1.1098,0,1.0676,1.0737,1.0782,1.08,1.0846,1.0868,1.0888,1.0922,1.0946,1.0981,1.0998,1.1037,1.1059,1.109,1.1111,1.1097,1.117,1.1155,1.1183,1.1182,1.1199,1.1198,1.1263,1.1209,1.1209,1.1209,1.1208,0,1.0724,1.0763,1.0794,1.0823,1.0866,1.0886,1.0929,1.095,1.098,1.1014,1.1024,1.1055,1.108,1.1115,1.1131,1.118,1.1189,1.1201,1.1205,1.1202,1.12,1.1218,1.1216,1.1211,1.121,1.121,1.1209,0,1.0759,1.0782,1.0833,1.0872,1.0883,1.0914,1.0949,1.0978,1.0997,1.104,1.1051,1.1082,1.1124,1.1147,1.12,1.1211,1.1266,1.1267,1.1254,1.1257,1.1284,1.1282,1.1365,1.1378,1.1312,1.1313,1.1313,0,1.079,1.0819,1.0863,1.0886,1.0907,1.0944,1.0969,1.099,1.1016,1.1059,1.1083,1.1126,1.1161,1.1229,1.1257,1.1298,1.1302,1.1328,1.1308,1.1304,1.1305,1.1304,1.1309,1.1332,1.1332,1.1333,1.1333,0,1.0842,1.0852,1.0888,1.0928,1.0957,1.099,1.1022,1.1041,1.1067,1.1096,1.114,1.1167,1.1222,1.1265,1.1309,1.1331,1.1338,1.1339,1.1348,1.1346,1.1338,1.1345,1.1266,1.1337,1.1337,1.1337,1.1337,1.1336,1.0878,1.0906,1.0941,1.0981,1.1007,1.1038,1.1068,1.1091,1.1127,1.1174,1.1183,1.123,1.1266,1.1326,1.1349,1.1387,1.1382,1.1394,1.1398,1.1402,1.1404,1.133,1.1394,1.1394,1.1394,1.1394,1.1394,0,1.0933,1.0956,1.0993,1.1038,1.107,1.1072,1.1109,1.1136,1.1177,1.1209,1.1245,1.1296,1.1338,1.1369,1.1413,1.1438,1.1442,1.1449,1.1448,1.1454,1.1404,1.1393,1.1445,1.1445,1.1445,1.1445,1.1445,1.1445,1.0966,1.1014,1.1028,1.1091,1.1114,1.116,1.1181,1.121,1.1236,1.1293,1.1329,1.1348,1.1382,1.1428,1.1468,1.1476,1.1493,1.15,1.1509,1.1462,1.1457,1.1452,1.1442,1.1502,1.1503,1.1555,1.1556,1.1556]}]]